NIEUW!!! Volg onze weer- en natuurfoto's op Instagram @ weerstationmaaseik.be

WS Maaseik 1 Meer informatie WS Maaseik 1


WS Maaseik 2 Meer informatie WS Maaseik 2


Regen radar Meer informatie rain snow radar


Bezoek onze andere website:

Vorige versie
weerstation Maaseik


Bezoek ook eens deze sites:

Weerstation Geleen

Weerstation Luyksgestel



Het weer levert geen direct gevaar op.    Er zijn geen waarschuwingen afgegeven.

15 daagse weersverwachting An Muileann gCearr (IE)

  • Overzicht
  • Per uur
  • 15 dagen
  • Extra
  • Vergelijk
  • Kaarten
  • Dagkaart
  • Meer »
  • Info
  • Statistieken
  • Directe link
    Temp 6h Neerslag Wind  
 07:19     19:25    Daglengte: 12:06 Morgen
01:00
12°
17.9 mm
3
07:00
10°
 
3
13:00
14°
10.0 mm
7
19:00
15°
41.9 mm
5
 07:20     19:23    Daglengte: 12:03 Dinsdag 24 Sep
01:00
15°
53.9 mm
4
07:00
13°
10.9 mm
4
13:00
16°
 
5
19:00
14°
54.8 mm
3
 07:22     19:21    Daglengte: 11:59 Woensdag 25 Sep
01:00
13°
46.1 mm
3
07:00
13°
45.4 mm
4
13:00
15°
 
4
19:00
16°
36.2 mm
5
Locatie info
Region: Leinster
Latitude: 53.5333°N
Longitude: -7.3500°E
96 masl
Temp/Neerslag /Baro Onweer/Dauwpunt
    Temp Baro 1h Neerslag Dauwpunt Wind UV Bewolking  
 07:17     19:28    Daglengte: 12:11 Vandaag
23:00
13°
1003.0 hPa 8.8 mm
18%
11.1°
4
Windvlaag: 0.5 m/s
73%
 07:19     19:25    Daglengte: 12:06 Morgen
00:00
13°
1003.3 hPa
14%
10.8°
4
Windvlaag: 0.8 m/s
31%
01:00
12°
1003.6 hPa
14%
10.4°
3
Windvlaag: 2.2 m/s
14%
02:00
11°
1004.0 hPa
14%
10.0°
3
Windvlaag: 2.3 m/s
12%
03:00
11°
1003.9 hPa
14%
9.7°
3
Windvlaag: 2.4 m/s
14%
04:00
11°
1003.8 hPa
14%
9.7°
3
Windvlaag: 2.6 m/s
12%
05:00
10°
1003.9 hPa
14%
9.6°
3
Windvlaag: 2.7 m/s
8%
06:00
10°
1003.8 hPa
14%
9.4°
2
Windvlaag: 2.5 m/s
20%
07:00
10°
Voelt als: 8.3°
1003.9 hPa
14%
9.2°
3
Windvlaag: 2.6 m/s
63%
08:00
10°
1003.8 hPa
14%
9.2°
4
Windvlaag: 3 m/s
84%
09:00
11°
1003.4 hPa
14%
9.7°
5
Windvlaag: 3.2 m/s
81%
10:00
12°
1002.8 hPa
14%
10.8°
5
Windvlaag: 4 m/s
89%
11:00
14°
1002.1 hPa
24%
11.7°
7
Windvlaag: 5 m/s
91%
12:00
14°
1001.2 hPa
69%
12.3°
7
Windvlaag: 5.5 m/s
91%
13:00
14°
1000.3 hPa 10.0 mm
80%
12.7°
7
Windvlaag: 5.3 m/s
91%
14:00
14°
999.4 hPa 7.8 mm
82%
12.8°
8
Windvlaag: 5.9 m/s
91%
15:00
14°
998.5 hPa 8.2 mm
82%
13.1°
8
Windvlaag: 5.5 m/s
91%
16:00
15°
997.3 hPa 8.2 mm
82%
13.4°
8
Windvlaag: 5.2 m/s
91%
17:00
15°
996.8 hPa 7.4 mm
82%
13.6°
8
Windvlaag: 5.1 m/s
90%
18:00
15°
996.5 hPa
82%
14.1°
6
Windvlaag: 5.2 m/s
72%
19:00
15°
996.3 hPa 10.3 mm
82%
14.6°
5
Windvlaag: 5.3 m/s
88%
20:00
15°
996.4 hPa 10.8 mm
82%
14.5°
5
Windvlaag: 4.3 m/s
90% warningclass
21:00
15°
996.6 hPa 10.5 mm
38%
14.6°
5
Windvlaag: 4.7 m/s
89%
22:00
15°
996.6 hPa 10.9 mm
82%
14.6°
5
Windvlaag: 4.7 m/s
90%
23:00
15°
996.5 hPa 10.9 mm
82%
14.5°
5
Windvlaag: 5.1 m/s
89%
 07:20     19:23    Daglengte: 12:03 Dinsdag 24 Sep
00:00
15°
996.5 hPa
82%
14.4°
5
Windvlaag: 5 m/s
78%
01:00
15°
996.3 hPa 10.8 mm
82%
14.2°
4
Windvlaag: 4.2 m/s
73%
02:00
15°
996.0 hPa 10.9 mm
82%
14.2°
4
Windvlaag: 4 m/s
68% warningclass
03:00
15°
995.5 hPa
70%
14.0°
4
Windvlaag: 3.9 m/s
54%
04:00
14°
995.3 hPa
27%
13.6°
4
Windvlaag: 3.6 m/s
26%
05:00
14°
994.9 hPa
25%
13.3°
4
Windvlaag: 3.6 m/s
50%
06:00
14°
994.7 hPa
14%
13.1°
4
Windvlaag: 3.1 m/s
72%
07:00
13°
994.7 hPa
14%
12.9°
4
Windvlaag: 3 m/s
37%
08:00
13°
994.7 hPa
14%
12.7°
4
Windvlaag: 3.4 m/s
12%
09:00
14°
994.5 hPa
14%
12.9°
4
Windvlaag: 3.5 m/s
28%
10:00
15°
994.2 hPa
14%
13.0°
5
Windvlaag: 3.4 m/s
44%
11:00
15°
994.2 hPa
18%
12.6°
5
Windvlaag: 3.6 m/s
61%
12:00
16°
993.8 hPa
73%
12.3°
5
Windvlaag: 3.9 m/s
85%
13:00
16°
993.5 hPa
82%
12.1°
5
Windvlaag: 4.1 m/s
84%
14:00
17°
993.3 hPa 7.9 mm
82%
12.4°
5
Windvlaag: 4.4 m/s
83%
15:00
16°
993.1 hPa 11.5 mm
78%
12.4°
5
Windvlaag: 3.9 m/s
86%
16:00
16°
992.4 hPa 7.9 mm
99%
12.9°
5
Windvlaag: 3.1 m/s
94%
17:00
15°
992.0 hPa 8.2 mm
100%
13.0°
4
Windvlaag: 2.8 m/s
95%
18:00
15°
992.2 hPa 8.1 mm
100%
13.4°
4
Windvlaag: 2.9 m/s
93%
19:00
14°
992.6 hPa 11.2 mm
100%
12.6°
3
Windvlaag: 2.9 m/s
92%
20:00
14°
993.1 hPa 10.9 mm
99%
12.6°
3
Windvlaag: 2.2 m/s
89%
21:00
13°
993.4 hPa
90%
12.6°
3
Windvlaag: 2 m/s
88%
22:00
13°
994.0 hPa
90%
12.5°
3
Windvlaag: 2 m/s
80%
23:00
13°
994.3 hPa 12.4 mm
100%
12.7°
3
Windvlaag: 2.3 m/s
90%
 07:22     19:21    Daglengte: 11:59 Woensdag 25 Sep
00:00
13°
994.6 hPa 11.6 mm
100%
12.8°
3
Windvlaag: 3.3 m/s
93%
01:00
13°
994.7 hPa 11.2 mm
100%
12.9°
3
Windvlaag: 3.2 m/s
98%
02:00
13°
995.2 hPa 11.5 mm
100%
12.8°
3
Windvlaag: 3.4 m/s
84%
03:00
13°
995.7 hPa 11.5 mm
100%
12.6°
4
Windvlaag: 1.7 m/s
83%
04:00
12°
996.2 hPa 11.2 mm
100%
12.2°
4
Windvlaag: 1.3 m/s
82%
05:00
12°
996.4 hPa 11.2 mm
100%
12.1°
4
Windvlaag: 1.1 m/s
91%
06:00
13°
996.7 hPa
100%
12.5°
4
Windvlaag: 1 m/s
98%
07:00
13°
997.0 hPa
100%
12.4°
4
Windvlaag: 0.6 m/s
97%
08:00
13°
997.6 hPa
93%
12.4°
4
Windvlaag: -0.3 m/s
99%
09:00
13°
998.2 hPa
48%
12.4°
5
Windvlaag: -0.2 m/s
99%
10:00
13°
998.4 hPa
39%
12.3°
4
Windvlaag: -0.3 m/s
97%
11:00
13°
998.6 hPa
75%
12.2°
4
Windvlaag: 0.1 m/s
97%
12:00
14°
998.8 hPa
79%
12.4°
4
Windvlaag: 0.3 m/s
82%
13:00
15°
998.7 hPa
44%
12.6°
4
Windvlaag: 0.3 m/s
80%
14:00
16°
999.3 hPa
96%
13.1°
4
Windvlaag: 1.2 m/s
65%
15:00
17°
999.0 hPa 18.1 mm
82%
13.2°
5
Windvlaag: 1.2 m/s
76%
16:00
17°
998.4 hPa
94%
12.9°
5
Windvlaag: 1.3 m/s
86%
17:00
17°
998.0 hPa 18.1 mm
100%
13.1°
5
Windvlaag: 1.5 m/s
97%
18:00
16°
997.7 hPa
100%
13.5°
5
Windvlaag: 1.8 m/s
100%
19:00
16°
997.4 hPa
98%
13.7°
5
Windvlaag: 1.9 m/s
84%
20:00
16°
999.1 hPa 63.0 mm
100%
13.9°
4
Windvlaag: 13.5 m/s
88%
21:00
16°
998.8 hPa 63.7 mm
100%
14.0°
4
Windvlaag: 14.5 m/s
89%
22:00
15°
998.5 hPa 63.9 mm
100%
14.1°
4
Windvlaag: 13.8 m/s
86%
Temp/Neerslag /Baro Onweer/Dauwpunt
    Temp Baro Neerslag Dauwpunt Wind Bewolking  
 07:19     19:25    Daglengte: 12:06 Morgen
01:00
12°
1003.6 hPa 8.8 mm 10.4°
3
14%
04:00
11°
1003.8 hPa   9.7°
3
12%
07:00
10°
Voelt als: 8.3°
1003.9 hPa   9.2°
3
63%
10:00
12°
1002.8 hPa   10.8°
5
89%
13:00
14°
1000.3 hPa 10.0 mm 12.7°
7
91%
16:00
15°
997.3 hPa 24.1 mm 13.4°
8
91%
19:00
15°
996.3 hPa 17.8 mm 14.6°
5
88%
22:00
15°
996.6 hPa 32.2 mm 14.6°
5
90%
 07:20     19:23    Daglengte: 12:03 Dinsdag 24 Sep
01:00
15°
996.3 hPa 21.7 mm 14.2°
4
73%
04:00
14°
995.3 hPa 10.9 mm 13.6°
4
26%
07:00
13°
994.7 hPa   12.9°
4
37%
10:00
15°
994.2 hPa   13.0°
5
44%
13:00
16°
993.5 hPa   12.1°
5
84%
16:00
16°
992.4 hPa 27.4 mm 12.9°
5
94%
19:00
14°
992.6 hPa 27.4 mm 12.6°
3
92%
22:00
13°
994.0 hPa 10.9 mm 12.5°
3
80%
 07:22     19:21    Daglengte: 11:59 Woensdag 25 Sep
01:00
13°
994.7 hPa 35.1 mm 12.9°
3
98%
04:00
12°
996.2 hPa 34.2 mm 12.2°
4
82%
07:00
13°
997.0 hPa 11.2 mm 12.4°
4
97%
10:00
13°
998.4 hPa   12.3°
4
97%
13:00
15°
998.7 hPa   12.6°
4
80%
16:00
17°
998.4 hPa 18.1 mm 12.9°
5
86%
19:00
16°
997.4 hPa 18.1 mm 13.7°
5
84%
22:00
15°
998.5 hPa 190.5 mm 14.1°
4
86%
 07:24     19:18    Daglengte: 11:54 Donderdag 26 Sep
01:00
15°
997.7 hPa 191.8 mm 14.2°
4
96%
04:00
14°
997.9 hPa 30.1 mm 13.5°
4
73%
07:00
14°
997.7 hPa 30.2 mm 13.1°
4
64%
10:00
15°
998.8 hPa 30.4 mm 12.0°
5
51%
13:00
15°
999.9 hPa 31.5 mm 10.8°
7
37%
16:00
14°
1000.4 hPa 33.0 mm 10.6°
6
63%
19:00
13°
1001.1 hPa 33.5 mm 10.2°
5
88%
22:00
12°
1001.7 hPa 33.6 mm 9.8°
5
75%
 07:26     19:16    Daglengte: 11:50 Vrijdag 27 Sep
01:00
11°
1002.2 hPa 33.6 mm 9.4°
5
61%
04:00
11°
1001.8 hPa 33.6 mm 9.5°
5
63%
07:00
11°
1001.5 hPa 35.2 mm 9.6°
5
65%
10:00
13°
1002.0 hPa 36.0 mm 9.8°
6
78%
13:00
14°
1002.6 hPa 36.5 mm 9.9°
6
91%
16:00
13°
1002.3 hPa 37.0 mm 10.4°
6
91%
19:00
12°
1002.2 hPa 37.0 mm 10.8°
6
92%
22:00
12°
1003.1 hPa 37.0 mm 10.4°
6
89%
 07:27     19:13    Daglengte: 11:46 Zaterdag 28 Sep
01:00
11°
1004.0 hPa 37.0 mm 10.1°
6
86%
04:00
11°
1004.6 hPa 37.0 mm 9.9°
6
85%
07:00
11°
1005.2 hPa 37.0 mm 9.8°
5
84%
10:00
13°
1006.2 hPa 37.0 mm 10.4°
5
72%
13:00
15°
1007.2 hPa 37.1 mm 11.0°
5
60%
16:00
14°
1007.2 hPa 37.7 mm 11.2°
4
75%
19:00
13°
1007.4 hPa 38.6 mm 11.3°
3
89%
22:00
12°
1007.1 hPa 38.6 mm 11.1°
2
90%
 07:29     19:11    Daglengte: 11:42 Zondag 29 Sep
01:00
12°
1006.7 hPa 38.6 mm 11.0°
2
92%
04:00
11°
1006.1 hPa 38.6 mm 10.4°
2
74%
07:00
10°
Voelt als: 9.3°
1005.5 hPa 38.6 mm 9.8°
2
56%
10:00
13°
1006.9 hPa 38.6 mm 10.5°
2
54%
13:00
15°
1008.5 hPa 39.0 mm 10.8°
3
52%
16:00
14°
1010.3 hPa 39.6 mm 10.5°
3
42%
19:00
13°
1012.2 hPa 39.8 mm 10.2°
3
32%
22:00
11°
1015.0 hPa   9.3°
3
20%
 07:31     19:08    Daglengte: 11:37 Maandag 30 Sep
01:00
Voelt als: 7.8°
1017.6 hPa 79.6 mm 8.6°
3
9%
07:00
Voelt als: 6.1°
1020.8 hPa 79.6 mm 7.0°
2
1%
13:00
15°
1023.2 hPa 79.7 mm 9.6°
1
87%
19:00
13°
1022.6 hPa 79.9 mm 11.2°
1
92%
 07:33     19:06    Daglengte: 11:33 Dinsdag 01 Okt
01:00
12°
1023.2 hPa 85.7 mm 10.2°
2
92%
07:00
11°
1022.6 hPa 97.1 mm 9.5°
2
90%
13:00
16°
1022.5 hPa 99.9 mm 11.6°
4
85%
19:00
15°
1020.4 hPa 99.9 mm 11.1°
3
91%
 07:35     19:04    Daglengte: 11:29 Woensdag 02 Okt
01:00
11°
1018.9 hPa 99.9 mm 10.2°
4
79%
07:00
12°
1015.6 hPa 100.3 mm 10.7°
4
92%
13:00
15°
1013.7 hPa 103.8 mm 11.0°
7
91%
19:00
11°
1012.6 hPa 1.2 mm 7.8°
2
75%
 07:36     19:01    Daglengte: 11:25 Donderdag 03 Okt
01:00
Voelt als: 7.4°
1012.9 hPa 1.1 mm 6.7°
2
69%
07:00
1011.2 hPa 1.4 mm 6.7°
1
75%
13:00
12°
1011.7 hPa 1.6 mm 8.5°
2
74%
19:00
11°
1010.5 hPa 1.9 mm 7.7°
2
71%
 07:38     18:59    Daglengte: 11:21 Vrijdag 04 Okt
01:00
Voelt als: 7.6°
1011.2 hPa 0.5 mm 7.2°
3
57%
07:00
Voelt als: 7.5°
1011.5 hPa 1.1 mm 7.4°
3
70%
13:00
13°
1012.0 hPa 1.2 mm 9.4°
3
66%
19:00
12°
1011.3 hPa 1.4 mm 9.2°
3
79%
 07:40     18:56    Daglengte: 11:16 Zaterdag 05 Okt
01:00
10°
Voelt als: 8.0°
1011.1 hPa 1.3 mm 8.4°
4
68%
07:00
10°
Voelt als: 7.6°
1010.6 hPa 0.5 mm 8.3°
4
58%
13:00
14°
1011.7 hPa 0.2 mm 11.1°
5
66%
19:00
13°
1011.2 hPa 0.7 mm 10.7°
4
71%
 07:42     18:54    Daglengte: 11:12 Zondag 06 Okt
01:00
11°
1012.8 hPa 0.4 mm 9.3°
4
48%
07:00
10°
Voelt als: 8.3°
1013.2 hPa 0.2 mm 8.5°
3
51%
13:00
14°
1014.9 hPa 0.2 mm 10.3°
4
53%
19:00
12°
1015.1 hPa 0.2 mm 9.6°
3
59%
 07:44     18:52    Daglengte: 11:08 Maandag 07 Okt
01:00
10°
1015.6 hPa 0.1 mm 8.6°
4
46%
07:00
10°
Voelt als: 7.6°
1015.1 hPa 0.2 mm 8.3°
4
45%
13:00
14°
1016.5 hPa 0.6 mm 11.1°
4
57%
19:00
13°
1016.6 hPa 0.6 mm 11.0°
2
68%
  CAPE Lifted Index Hail Supercell Tornado SRH 3km CL BTM PRES CL TOP PRES Swiss DWD icon SMHI TS
 07:17     19:28    Daglengte: 12:11 Vandaag
23:00 1 J/kg 3.0 K 0 % 0 % 0 % 0 m²/s² 0 0 3.3 3
 07:19     19:25    Daglengte: 12:06 Morgen
00:00 0 J/kg 3.4 K 0 % 0 % 0 % 0 m²/s² 0 0 3.52 1
01:00 0 J/kg 4.4 K 0 % 0 % 0 % 0 m²/s² 0 0 4.64 1
02:00 0 J/kg 6.0 K 0 % 0 % 0 % 0 m²/s² 0 0 6.81 1
03:00 0 J/kg 5.9 K 0 % 0 % 0 % 0 m²/s² 0 0 7.37 1
04:00 0 J/kg 5.5 K 0 % 0 % 0 % 0 m²/s² 0 0 7.66 1
05:00 0 J/kg 5.2 K 0 % 0 % 0 % 0 m²/s² 0 0 8.32 1
06:00 0 J/kg 5.6 K 0 % 0 % 0 % 0 m²/s² 0 0 10.22 0
07:00 0 J/kg 6.5 K 0 % 0 % 0 % 0 m²/s² 0 0 13.1 3
08:00 0 J/kg 7.3 K 0 % 0 % 0 % 0 m²/s² 0 0 13.36 3
09:00 0 J/kg 5.8 K 0 % 0 % 0 % 0 m²/s² 0 0 12.04 3
10:00 5 J/kg 6.0 K 0 % 0 % 0 % 0 m²/s² 0 0 11.01 3
11:00 49 J/kg 4.5 K 0 % 0 % 0 % 0 m²/s² 0 0 4.8 3
12:00 66 J/kg 3.7 K 0 % 0 % 0 % 0 m²/s² 0 0 3.79 3
13:00 11 J/kg 4.2 K 0 % 0 % 0 % 0 m²/s² 0 0 4.23 3
14:00 4 J/kg 2.8 K 0 % 0 % 0 % 0 m²/s² 0 0 2.92 61
15:00 21 J/kg 2.6 K 0 % 0 % 0 % 0 m²/s² 0 0 2.63 61
16:00 3 J/kg 1.4 K 0 % 0 % 0 % 0 m²/s² 0 0 2.6 61
17:00 0 J/kg 0.7 K 0 % 0 % 0 % 0 m²/s² 0 0 2.95 61
18:00 171 J/kg -1.3 K 0 % 0 % 0 % 0 m²/s² 0 0 0.44 80
19:00 577 J/kg -2.5 K 0 % 0 % 0 % 0 m²/s² 0 0 -1.66 80
20:00 721 J/kg -2.8 K 0 % 0 % 0 % 0 m²/s² 0 0 -2.68 80
21:00 461 J/kg -2.5 K 0 % 0 % 0 % 0 m²/s² 0 0 -1.99 3
22:00 271 J/kg -1.5 K 0 % 0 % 0 % 0 m²/s² 0 0 -0.06 80
23:00 148 J/kg -1.1 K 0 % 0 % 0 % 0 m²/s² 0 0 2.62 61
 07:20     19:23    Daglengte: 12:03 Dinsdag 24 Sep
00:00 91 J/kg -0.6 K 0 % 0 % 0 % 0 m²/s² 0 0 4.23 80
01:00 137 J/kg -0.8 K 0 % 0 % 0 % 0 m²/s² 0 0 1.45 80
02:00 262 J/kg -1.2 K 0 % 0 % 0 % 0 m²/s² 0 0 0.84 95
03:00 239 J/kg -1.0 K 0 % 0 % 0 % 0 m²/s² 0 0 2.99 3
04:00 401 J/kg -1.4 K 0 % 0 % 0 % 0 m²/s² 0 0 2.68 3
05:00 196 J/kg -0.8 K 0 % 0 % 0 % 0 m²/s² 0 0 0.64 2
06:00 215 J/kg -0.9 K 0 % 0 % 0 % 0 m²/s² 0 0 -0.39 3
07:00 268 J/kg -0.8 K 0 % 0 % 0 % 0 m²/s² 0 0 0.28 3
08:00 63 J/kg 0.8 K 0 % 0 % 0 % 0 m²/s² 0 0 4.04 2
09:00 34 J/kg 1.3 K 0 % 0 % 0 % 0 m²/s² 0 0 4.9 1
10:00 31 J/kg 1.6 K 0 % 0 % 0 % 0 m²/s² 0 0 4.66 3
11:00 80 J/kg 1.3 K 0 % 0 % 0 % 0 m²/s² 0 0 3.34 3
12:00 98 J/kg 1.3 K 0 % 0 % 0 % 0 m²/s² 0 0 4.99 3
13:00 52 J/kg 1.3 K 0 % 0 % 0 % 0 m²/s² 0 0 6.46 61
14:00 91 J/kg 0.6 K 0 % 0 % 0 % 0 m²/s² 0 0 4.83 61
15:00 142 J/kg 0.3 K 0 % 0 % 0 % 0 m²/s² 0 0 1.8 3
16:00 201 J/kg -0.1 K 0 % 0 % 0 % 0 m²/s² 0 0 0.65 61
17:00 218 J/kg -0.2 K 0 % 0 % 0 % 0 m²/s² 0 0 0.58 80
18:00 207 J/kg 0.1 K 0 % 0 % 0 % 0 m²/s² 0 0 0.79 61
19:00 72 J/kg 0.9 K 0 % 0 % 0 % 0 m²/s² 0 0 1.68 61
20:00 20 J/kg 1.5 K 0 % 0 % 0 % 0 m²/s² 0 0 2.37 80
21:00 4 J/kg 1.8 K 0 % 0 % 0 % 0 m²/s² 0 0 2.94 3
22:00 2 J/kg 2.0 K 0 % 0 % 0 % 0 m²/s² 0 0 3.35 3
23:00 2 J/kg 2.0 K 0 % 0 % 0 % 0 m²/s² 0 0 3.56 61
 07:22     19:21    Daglengte: 11:59 Woensdag 25 Sep
00:00 2 J/kg 1.4 K 0 % 0 % 0 % 0 m²/s² 0 0 3.8 55
01:00 3 J/kg 1.4 K 0 % 0 % 0 % 0 m²/s² 0 0 5.03 61
02:00 0 J/kg 1.4 K 0 % 0 % 0 % 0 m²/s² 0 0 5.63 61
03:00 0 J/kg 1.8 K 0 % 0 % 0 % 0 m²/s² 0 0 6.6 61
04:00 2 J/kg 2.3 K 0 % 0 % 0 % 0 m²/s² 0 0 7.22 80
05:00 1 J/kg 2.8 K 0 % 0 % 0 % 0 m²/s² 0 0 6.91 61
06:00 2 J/kg 3.5 K 0 % 0 % 0 % 0 m²/s² 0 0 6.26 3
07:00 1 J/kg 4.5 K 0 % 0 % 0 % 0 m²/s² 0 0 6.9 80
08:00 0 J/kg 4.8 K 0 % 0 % 0 % 0 m²/s² 0 0 7.89 80
09:00 3 J/kg 5.3 K 0 % 0 % 0 % 0 m²/s² 0 0 10.25 3
10:00 4 J/kg 6.7 K 0 % 0 % 0 % 0 m²/s² 0 0 11.29 3
11:00 7 J/kg 6.0 K 0 % 0 % 0 % 0 m²/s² 0 0 8.07 3
12:00 12 J/kg 5.4 K 0 % 0 % 0 % 0 m²/s² 0 0 5.91 80
13:00 35 J/kg 4.8 K 0 % 0 % 0 % 0 m²/s² 0 0 5.4 3
14:00 102 J/kg 3.4 K 0 % 0 % 0 % 0 m²/s² 0 0 4 2
15:00 111 J/kg 2.1 K 0 % 0 % 0 % 0 m²/s² 0 0 3.18 3
16:00 97 J/kg 1.1 K 0 % 0 % 0 % 0 m²/s² 0 0 1.76 3
17:00 132 J/kg 0.5 K 0 % 0 % 0 % 0 m²/s² 0 0 0.59 61
18:00 118 J/kg 0.1 K 0 % 0 % 0 % 0 m²/s² 0 0 0.13 3
19:00 59 J/kg 0.5 K 0 % 0 % 0 % 0 m²/s² 0 0 0.5 3
20:00 74 J/kg 0.1 K 0 % 0 % 0 % 0 m²/s² 0 0 0.19
21:00 194 J/kg -0.9 K 0 % 0 % 0 % 0 m²/s² 0 0 -0.57
22:00 188 J/kg 0.2 K 0 % 0 % 0 % 0 m²/s² 0 0 2.72
Temp Baro Wind Neerslag
  EWN Forecast EWN WRFDA DWD ICON FMI HIRLAM MET Norway GFS
 07:19     19:25    Daglengte: 12:06 Morgen
01:00 11.9° 1003.6 hPa 3.4 m/s 8.8 mm 11.1° 1002.6 hPa 3.8 m/s 132.4 mm 11.8° 1004.2 hPa 3.3 m/s 0.0 mm 13.3° 1003.6 hPa 2.5 m/s 0.0 mm 11.5° 1003.5 hPa 3.2 m/s 0.0 mm 10.7° 1003.5 hPa 2.5 m/s
04:00 10.6° 1003.8 hPa 2.7 m/s 0.0 mm 7.8° 1002.9 hPa 3.5 m/s 134.3 mm 10.6° 1004.9 hPa 2.5 m/s 0.0 mm 13.1° 1003.8 hPa 1.8 m/s 0.0 mm 10.0° 1003.8 hPa 2.6 m/s 0.0 mm 7.9° 1004.0 hPa 2.6 m/s
07:00 9.8° 1003.9 hPa 3.0 m/s 0.0 mm 7.1° 1002.9 hPa 3.2 m/s 134.3 mm 10.0° 1004.7 hPa 2.8 m/s 0.0 mm 11.0° 1003.9 hPa 2.9 m/s 0.0 mm 9.4° 1003.9 hPa 3.0 m/s 0.0 mm 7.7° 1004.0 hPa 2.6 m/s
10:00 12.3° 1002.8 hPa 5.4 m/s 0.0 mm 12.6° 1001.8 hPa 5.6 m/s 134.3 mm 12.4° 1003.7 hPa 5.9 m/s 0.0 mm 12.8° 1002.9 hPa 5.5 m/s 0.0 mm 12.1° 1002.5 hPa 4.4 m/s 0.0 mm 11.4° 1003.0 hPa 4.6 m/s
13:00 14.3° 1000.3 hPa 7.0 m/s 10.0 mm 13.8° 999.9 hPa 6.6 m/s 137.2 mm 15.2° 1001.5 hPa 7.8 m/s 0.0 mm 14.3° 1000.8 hPa 7.0 m/s 0.0 mm 14.2° 999.6 hPa 6.2 m/s 1.6 mm 12.7° 1000.6 hPa 5.6 m/s
16:00 14.5° 997.3 hPa 8.0 m/s 24.1 mm 14.2° 997.2 hPa 8.9 m/s 146.1 mm 14.3° 998.6 hPa 9.6 m/s 5.2 mm 14.7° 997.2 hPa 7.2 m/s 0.0 mm 15.0° 997.0 hPa 6.3 m/s 3.1 mm 13.4° 998.1 hPa 6.5 m/s
19:00 15.4° 996.3 hPa 4.9 m/s 17.8 mm 16.1° 996.4 hPa 4.9 m/s 149.7 mm 14.3° 996.2 hPa 7.1 m/s 1.6 mm 15.5° 996.3 hPa 4.4 m/s 0.0 mm 15.5° 996.6 hPa 4.1 m/s 0.5 mm 15.8° 996.6 hPa 3.7 m/s
22:00 15.4° 996.6 hPa 5.0 m/s 32.2 mm 15.2° 997.5 hPa 5.6 m/s 154.5 mm 14.6° 995.9 hPa 4.7 m/s 0.9 mm 16.0° 996.5 hPa 5.7 m/s 0.0 mm 15.6° 996.9 hPa 3.9 m/s 1.2 mm 14.4° 997.5 hPa 4.8 m/s
 07:20     19:23    Daglengte: 12:03 Dinsdag 24 Sep
01:00 14.9° 996.3 hPa 4.5 m/s 21.7 mm 14.5° 997.1 hPa 4.4 m/s 154.9 mm 14.5° 995.0 hPa 4.5 m/s 1.1 mm 15.4° 996.7 hPa 4.5 m/s 0.0 mm 15.0° 996.3 hPa 4.0 m/s 1.0 mm 13.1° 997.0 hPa 3.7 m/s
04:00 14.1° 995.3 hPa 4.1 m/s 10.9 mm 13.9° 996.0 hPa 4.3 m/s 155.2 mm 13.6° 994.6 hPa 3.9 m/s 1.4 mm 15.1° 996.1 hPa 4.9 m/s 0.0 mm 14.3° 995.1 hPa 3.2 m/s 0.0 mm 12.6° 995.9 hPa 3.3 m/s
07:00 13.4° 994.7 hPa 3.8 m/s 0.0 mm 13.7° 994.9 hPa 2.6 m/s 158.0 mm 13.4° 994.1 hPa 4.6 m/s 0.0 mm 15.4° 995.7 hPa 3.9 m/s 0.0 mm 13.1° 994.4 hPa 2.9 m/s 0.0 mm 12.4° 995.2 hPa 2.2 m/s
10:00 14.7° 994.2 hPa 5.1 m/s 0.0 mm 14.3° 994.1 hPa 3.3 m/s 160.6 mm 14.6° 993.7 hPa 6.4 m/s 0.0 mm 15.0° 996.1 hPa 4.5 m/s 0.0 mm 14.9° 993.9 hPa 5.1 m/s 0.0 mm 14.1° 995.0 hPa 3.1 m/s
13:00 16.3° 993.5 hPa 5.2 m/s 0.0 mm 16.7° 993.6 hPa 4.9 m/s 160.6 mm 14.2° 993.7 hPa 6.8 m/s 0.4 mm 16.0° 995.7 hPa 3.9 m/s 0.0 mm 16.8° 992.4 hPa 4.9 m/s 0.0 mm 16.5° 994.1 hPa 5.1 m/s
16:00 15.5° 992.4 hPa 4.5 m/s 27.4 mm 16.8° 992.4 hPa 4.2 m/s 160.7 mm 14.0° 993.1 hPa 6.4 m/s 0.7 mm 15.8° 991.4 hPa 4.0 m/s 0.9 mm 14.9° 992.5 hPa 4.2 m/s
19:00 13.7° 992.6 hPa 3.2 m/s 27.4 mm 13.1° 992.0 hPa 2.5 m/s 161.2 mm 13.3° 992.0 hPa 6.9 m/s 2.2 mm 14.7° 992.7 hPa 1.6 m/s 0.5 mm 13.2° 992.1 hPa 2.0 m/s
22:00 13.2° 994.0 hPa 3.3 m/s 10.9 mm 10.8° 994.3 hPa 1.5 m/s 161.4 mm 13.0° 991.7 hPa 6.6 m/s 0.3 mm 13.8° 995.1 hPa 2.4 m/s 0.0 mm 11.4° 994.6 hPa 2.4 m/s
 07:22     19:21    Daglengte: 11:59 Woensdag 25 Sep
01:00 13.1° 994.7 hPa 3.3 m/s 35.1 mm 11.5° 995.2 hPa 2.5 m/s 161.4 mm 13.0° 991.0 hPa 5.6 m/s 2.8 mm 13.2° 997.4 hPa 2.4 m/s 0.0 mm 10.7° 995.8 hPa 3.0 m/s
04:00 12.4° 996.2 hPa 4.2 m/s 34.2 mm 11.3° 997.0 hPa 3.7 m/s 161.4 mm 13.6° 990.9 hPa 7.1 m/s 1.3 mm 12.0° 999.0 hPa 2.4 m/s 0.0 mm 10.5° 997.9 hPa 3.8 m/s
07:00 12.5° 997.0 hPa 4.5 m/s 11.2 mm 12.1° 997.5 hPa 4.0 m/s 161.5 mm 13.2° 991.7 hPa 6.0 m/s 0.7 mm 12.2° 1000.3 hPa 4.0 m/s 0.0 mm 10.3° 998.5 hPa 3.3 m/s
10:00 12.9° 998.4 hPa 3.9 m/s 0.0 mm 12.2° 998.4 hPa 3.8 m/s 162.0 mm 13.6° 994.0 hPa 5.7 m/s 0.4 mm 12.7° 1001.5 hPa 2.7 m/s 0.0 mm 13.5° 999.1 hPa 4.4 m/s
13:00 15.4° 998.7 hPa 4.1 m/s 0.0 mm 16.0° 998.3 hPa 4.7 m/s 162.0 mm 16.5° 994.4 hPa 6.1 m/s 0.3 mm 15.1° 1002.1 hPa 3.0 m/s 0.0 mm 14.1° 999.0 hPa 3.6 m/s
16:00 17.0° 998.4 hPa 4.8 m/s 18.1 mm 17.7° 996.0 hPa 5.7 m/s 162.0 mm 15.7° 994.8 hPa 6.8 m/s 0.1 mm 17.1° 1001.2 hPa 3.5 m/s 0.0 mm 15.9° 996.3 hPa 5.2 m/s
19:00 15.6° 997.4 hPa 4.5 m/s 18.1 mm 15.8° 992.5 hPa 6.8 m/s 171.2 mm 14.7° 994.5 hPa 6.3 m/s 0.2 mm 15.7° 1000.7 hPa 2.7 m/s 0.0 mm 15.0° 992.8 hPa 7.3 m/s
22:00 15.4° 998.5 hPa 4.0 m/s 190.5 mm 15.1° 992.1 hPa 7.3 m/s 190.5 mm 15.5° 999.6 hPa 3.4 m/s 14.2° 992.5 hPa 7.5 m/s
 07:24     19:18    Daglengte: 11:54 Donderdag 26 Sep
01:00 15.0° 997.7 hPa 4.5 m/s 191.8 mm 12.9° 992.6 hPa 6.6 m/s 191.8 mm 15.3° 998.5 hPa 4.1 m/s 10.4° 993.6 hPa 4.1 m/s
04:00 14.5° 997.9 hPa 4.2 m/s 30.1 mm 14.8° 998.2 hPa 4.2 m/s 10.6° 994.5 hPa 4.6 m/s 30.1 mm
07:00 14.2° 997.7 hPa 4.3 m/s 30.2 mm 14.6° 998.0 hPa 4.2 m/s 10.2° 994.1 hPa 5.2 m/s 30.2 mm
10:00 14.7° 998.8 hPa 5.5 m/s 30.4 mm 14.9° 999.2 hPa 5.4 m/s 12.0° 994.7 hPa 6.3 m/s 30.4 mm
13:00 15.0° 999.9 hPa 6.6 m/s 31.5 mm 15.2° 1000.4 hPa 6.6 m/s 12.7° 994.6 hPa 7.1 m/s 31.5 mm
16:00 14.1° 1000.4 hPa 5.8 m/s 33.0 mm 14.1° 1001.0 hPa 5.6 m/s 13.4° 994.3 hPa 7.5 m/s 33.0 mm
19:00 12.9° 1001.1 hPa 4.6 m/s 33.5 mm 13.1° 1001.6 hPa 4.6 m/s 10.9° 995.1 hPa 4.4 m/s 33.5 mm
22:00 12.0° 1001.7 hPa 4.5 m/s 33.6 mm 12.2° 1002.2 hPa 4.5 m/s 9.9° 996.4 hPa 5.0 m/s 33.6 mm
 07:26     19:16    Daglengte: 11:50 Vrijdag 27 Sep
01:00 11.2° 1002.2 hPa 4.5 m/s 33.6 mm 11.3° 1002.8 hPa 4.4 m/s 10.0° 995.3 hPa 5.6 m/s 33.6 mm
04:00 11.2° 1001.8 hPa 4.6 m/s 33.6 mm 11.3° 1002.6 hPa 4.5 m/s 10.4° 992.7 hPa 6.1 m/s 33.6 mm
07:00 11.2° 1001.5 hPa 4.7 m/s 35.2 mm 11.3° 1002.4 hPa 4.5 m/s 10.3° 991.4 hPa 6.3 m/s 35.2 mm
10:00 12.6° 1002.0 hPa 5.7 m/s 36.0 mm 12.8° 1002.9 hPa 5.5 m/s 10.1° 992.4 hPa 8.2 m/s 36.0 mm
13:00 14.2° 1002.6 hPa 6.4 m/s 36.5 mm 14.3° 1003.4 hPa 6.4 m/s 13.3° 993.8 hPa 6.5 m/s 36.5 mm
16:00 13.4° 1002.3 hPa 6.2 m/s 37.0 mm 13.4° 1003.1 hPa 6.2 m/s 13.9° 993.9 hPa 6.5 m/s 37.0 mm
19:00 12.3° 1002.2 hPa 5.8 m/s 37.0 mm 12.5° 1002.8 hPa 5.9 m/s 10.6° 995.1 hPa 4.3 m/s 37.0 mm
22:00 11.7° 1003.1 hPa 5.8 m/s 37.0 mm 12.0° 1003.7 hPa 5.9 m/s 9.0° 996.9 hPa 5.1 m/s 37.0 mm
 07:27     19:13    Daglengte: 11:46 Zaterdag 28 Sep
01:00 11.3° 1004.0 hPa 5.9 m/s 37.0 mm 11.5° 1004.6 hPa 5.9 m/s 9.5° 997.9 hPa 5.8 m/s 37.0 mm
04:00 11.2° 1004.6 hPa 5.7 m/s 37.0 mm 11.4° 1005.1 hPa 5.7 m/s 8.9° 999.2 hPa 5.7 m/s 37.0 mm
07:00 11.0° 1005.2 hPa 5.4 m/s 37.0 mm 11.3° 1005.6 hPa 5.4 m/s 8.2° 1001.1 hPa 5.1 m/s 37.0 mm
10:00 13.0° 1006.2 hPa 5.3 m/s 37.0 mm 13.1° 1006.6 hPa 5.2 m/s 11.6° 1002.1 hPa 6.0 m/s 37.0 mm
13:00 14.8° 1007.2 hPa 5.0 m/s 37.1 mm 14.9° 1007.6 hPa 5.0 m/s 14.0° 1002.9 hPa 5.5 m/s 37.1 mm
16:00 13.8° 1007.2 hPa 4.1 m/s 37.7 mm 13.9° 1007.7 hPa 4.1 m/s 12.5° 1002.2 hPa 4.4 m/s 37.7 mm
19:00 12.8° 1007.4 hPa 3.2 m/s 38.6 mm 12.9° 1007.8 hPa 3.2 m/s 11.3° 1002.5 hPa 2.7 m/s 38.6 mm
22:00 12.1° 1007.1 hPa 2.4 m/s 38.6 mm 12.4° 1007.3 hPa 2.4 m/s 8.3° 1004.2 hPa 3.0 m/s 38.6 mm
 07:29     19:11    Daglengte: 11:42 Zondag 29 Sep
01:00 11.5° 1006.7 hPa 1.6 m/s 38.6 mm 11.9° 1006.9 hPa 1.5 m/s 7.4° 1004.4 hPa 2.6 m/s 38.6 mm
04:00 10.7° 1006.1 hPa 1.7 m/s 38.6 mm 10.9° 1006.2 hPa 1.5 m/s 8.4° 1004.6 hPa 3.5 m/s 38.6 mm
07:00 9.9° 1005.5 hPa 1.7 m/s 38.6 mm 10.0° 1005.5 hPa 1.5 m/s 8.9° 1005.1 hPa 4.3 m/s 38.6 mm
10:00 12.6° 1006.9 hPa 2.2 m/s 38.6 mm 12.8° 1007.0 hPa 1.9 m/s 10.4° 1005.7 hPa 4.9 m/s 38.6 mm
13:00 15.3° 1008.5 hPa 2.6 m/s 39.0 mm 15.6° 1008.6 hPa 2.4 m/s 11.9° 1007.0 hPa 4.4 m/s 39.0 mm
16:00 14.1° 1010.3 hPa 2.9 m/s 39.6 mm 14.2° 1010.5 hPa 2.5 m/s 12.8° 1007.3 hPa 6.2 m/s 39.6 mm
19:00 12.6° 1012.2 hPa 2.8 m/s 39.8 mm 12.9° 1012.5 hPa 2.7 m/s 9.2° 1008.9 hPa 4.1 m/s 39.8 mm
22:00 10.9° 1015.0 hPa 2.7 m/s 39.8 mm 11.2° 1015.2 hPa 2.6 m/s 6.5° 1012.2 hPa 4.4 m/s 39.8 mm
 07:31     19:08    Daglengte: 11:37 Maandag 30 Sep
01:00 9.2° 1017.6 hPa 2.6 m/s 39.8 mm 9.6° 1017.9 hPa 2.5 m/s 4.9° 1014.0 hPa 3.4 m/s 39.8 mm
07:00 7.2° 1020.8 hPa 1.9 m/s 39.8 mm 7.6° 1021.2 hPa 1.8 m/s 3.0° 1016.2 hPa 2.4 m/s 39.8 mm
13:00 14.7° 1023.2 hPa 1.1 m/s 39.9 mm 15.1° 1023.7 hPa 1.1 m/s 10.0° 1017.1 hPa 1.4 m/s 39.9 mm
19:00 13.3° 1022.6 hPa 1.2 m/s 40.0 mm 13.8° 1023.4 hPa 1.1 m/s 7.3° 1014.0 hPa 1.8 m/s 40.0 mm
 07:33     19:06    Daglengte: 11:33 Dinsdag 01 Okt
01:00 12.4° 1023.2 hPa 1.6 m/s 44.8 mm 13.0° 1024.4 hPa 1.5 m/s 5.5° 1010.2 hPa 2.9 m/s 44.8 mm
07:00 10.6° 1022.6 hPa 2.1 m/s 49.4 mm 11.1° 1023.7 hPa 1.9 m/s 4.7° 1010.0 hPa 4.6 m/s 49.4 mm
13:00 15.7° 1022.5 hPa 3.5 m/s 50.0 mm 16.5° 1023.4 hPa 3.6 m/s 6.6° 1012.9 hPa 3.0 m/s 50.0 mm
19:00 14.6° 1020.4 hPa 3.2 m/s 50.0 mm 15.3° 1021.1 hPa 3.2 m/s 6.6° 1012.9 hPa 2.9 m/s 50.0 mm
 07:35     19:04    Daglengte: 11:29 Woensdag 02 Okt
01:00 11.3° 1018.9 hPa 4.1 m/s 50.0 mm 11.8° 1019.4 hPa 4.2 m/s 6.3° 1013.0 hPa 3.1 m/s 50.0 mm
07:00 12.2° 1015.6 hPa 4.2 m/s 50.2 mm 12.8° 1016.0 hPa 4.3 m/s 5.7° 1011.6 hPa 2.8 m/s 50.2 mm
13:00 15.0° 1013.7 hPa 6.8 m/s 53.0 mm 15.7° 1013.8 hPa 7.0 m/s 7.5° 1012.5 hPa 4.1 m/s 53.0 mm
19:00 10.7° 1012.6 hPa 2.2 m/s 1.2 mm
 07:36     19:01    Daglengte: 11:25 Donderdag 03 Okt
01:00 8.2° 1012.9 hPa 1.7 m/s 1.1 mm
07:00 8.3° 1011.2 hPa 1.1 m/s 1.4 mm
13:00 12.4° 1011.7 hPa 2.2 m/s 1.6 mm
19:00 10.8° 1010.5 hPa 2.2 m/s 1.9 mm
 07:38     18:59    Daglengte: 11:21 Vrijdag 04 Okt
01:00 9.2° 1011.2 hPa 3.0 m/s 0.5 mm
07:00 8.9° 1011.5 hPa 2.5 m/s 1.1 mm
13:00 13.1° 1012.0 hPa 3.4 m/s 1.2 mm
19:00 11.5° 1011.3 hPa 2.8 m/s 1.4 mm
 07:40     18:56    Daglengte: 11:16 Zaterdag 05 Okt
01:00 9.8° 1011.1 hPa 3.6 m/s 1.3 mm
07:00 9.6° 1010.6 hPa 3.9 m/s 0.5 mm
13:00 14.3° 1011.7 hPa 5.2 m/s 0.2 mm
19:00 12.9° 1011.2 hPa 4.0 m/s 0.7 mm
 07:42     18:54    Daglengte: 11:12 Zondag 06 Okt
01:00 10.9° 1012.8 hPa 4.0 m/s 0.4 mm
07:00 10.0° 1013.2 hPa 3.3 m/s 0.2 mm
13:00 14.2° 1014.9 hPa 4.4 m/s 0.2 mm
19:00 12.2° 1015.1 hPa 3.2 m/s 0.2 mm
 07:44     18:52    Daglengte: 11:08 Maandag 07 Okt
01:00 10.0° 1015.6 hPa 3.9 m/s 0.1 mm
07:00 9.5° 1015.1 hPa 3.7 m/s 0.2 mm
13:00 14.5° 1016.5 hPa 4.3 m/s 0.6 mm
19:00 12.8° 1016.6 hPa 2.4 m/s 0.6 mm
FMI Hirlam - 7.5 km EWN WRFDA - 12 km DWD ICON - 7 km GFS - 25 km Basiskaart






























































Updatetijd (Europe/Brussels) Resolutie Lengte Stap
FMI Hirlam 19:00, 01:00, 07:00, 13:00 7.5 km 49h 1h
EWN WRFDA 21:30, 03:30, 09:30, 15:30 12 km 73h 1h
DWD ICON 17:45, 23:45, 05:45, 11:45 7 km 75h 1h
GFS 20:30, 02:30, 08:30, 14:30 25 km 237h 3h
30+ mm
25-30 mm
20-25 mm
15-20 mm
10-15 mm
6-10 mm
4-6 mm
2-4 mm
1-2 mm
0.5-1 mm
0.2-0.5 mm
0.1-0.2 mm
30+ mm
25-30 mm
20-25 mm
15-20 mm
10-15 mm
6-10 mm
4-6 mm
2-4 mm
1-2 mm
0.5-1 mm
0.2-0.5 mm
0.1-0.2 mm
Sneeuwval
Natte sneeuw
Hagel
Vorst
30+ mm
25-30 mm
20-25 mm
15-20 mm
10-15 mm
6-10 mm
4-6 mm
2-4 mm
1-2 mm
0.5-1 mm
0.2-0.5 mm
0.1-0.2 mm
Sneeuwval
Natte sneeuw
Hagel
Vorst
Onweer
50 mm
40 mm
30 mm
26 mm
22 mm
18 mm
14 mm
10 mm
9 mm
8 mm
7 mm
6 mm
5 mm
4.5 mm
4 mm
3.5 mm
3 mm
2.5 mm
2 mm
1.5 mm
1 mm
0.8 mm
0.6 mm
0.4 mm
0.2 mm
0.05 mm
35°
30°
25°
20°
15°
10°
-5°
-10°
-15°
-20°
-25°
-30°
-35°
33> m/s
29 m/s
25 m/s
21 m/s
17 m/s
14 m/s
11 m/s
8 m/s
5 m/s
3 m/s
0 m/s
2600 J/kg
2400 J/kg
2200 J/kg
2000 J/kg
1800 J/kg
1600 J/kg
1400 J/kg
1200 J/kg
1000 J/kg
800 J/kg
600 J/kg
400 J/kg
200 J/kg
70 dBZ
65 dBZ
60 dBZ
55 dBZ
50 dBZ
45 dBZ
40 dBZ
35 dBZ
30 dBZ
25 dBZ
20 dBZ
15 dBZ
10 dBZ
5 dBZ
-1 K
-2 K
-3 K
-4 K
-5 K
-6 K
-7 K
-8 K
-9 K
950 m²/s²
900 m²/s²
850 m²/s²
800 m²/s²
750 m²/s²
700 m²/s²
650 m²/s²
600 m²/s²
550 m²/s²
500 m²/s²
450 m²/s²
400 m²/s²
350 m²/s²
300 m²/s²
250 m²/s²
200 m²/s²
150 m²/s²
100 m²/s²
46 m/s
44 m/s
42 m/s
40 m/s
38 m/s
36 m/s
34 m/s
32 m/s
30 m/s
28 m/s
26 m/s
24 m/s
22 m/s
20 m/s
16 m/s
12 m/s
8 m/s
4 m/s
30 m/s
28 m/s
26 m/s
24 m/s
22 m/s
20 m/s
18 m/s
16 m/s
14 m/s
12 m/s
10 m/s
8 m/s
6 m/s
4 m/s
2 m/s
3.0
2.8
2.6
2.4
2.2
2.0
1.8
1.6
1.4
1.2
1.0
0.8
0.6
0.4
0.2
15
14
13
12
11
10
9
8
7
6
5
4
3
2
1
90%
80%
70%
60%
50%
40%
30%
20%
10%
42
40
38
36
34
32
30
28
26
24
22
20
18
16
14
12
90+ cm
80-90 cm
70-80 cm
60-70 cm
50-60 cm
40-50 cm
30-40 cm
20-30 cm
10-20 cm
1-10 cm
Sneeuwval
Natte sneeuw
Regen
>120 mm
115 mm
110 mm
105 mm
100 mm
95 mm
90 mm
85 mm
80 mm
75 mm
70 mm
65 mm
60 mm
55 mm
50 mm
45 mm
45 mm
40 mm
35 mm
30 mm
25 mm
20 mm
15 mm
10 mm
5 mm
0.1 mm
960 hPa
880 hPa
800 hPa
720 hPa
640 hPa
560 hPa
584 gpdm
568 gpdm
552 gpdm
536 gpdm
520 gpdm
504 gpdm
488 gpdm
Extreem zwaar Noodweer Kans op onweer
15% 15% 5% 50% 15%

Dag




Kaart






35°
30°
25°
20°
15°
10°
-5°
-10°
-15°
-20°
-25°
-30°
-35°
33> m/s
29 m/s
25 m/s
21 m/s
17 m/s
14 m/s
11 m/s
8 m/s
5 m/s
3 m/s
0 m/s
Extreem zwaar Noodweer Kans op onweer
15% 15% 5% 50% 15%